This is the latest recevied weather packets stored in our database for station/object W0AKY-13. If no packets are shown the sender has not sent any weather packets the latest 10 day(s).
| Time | Temp. | Humidity | Pressure | Rain* | Wind** | Luminosity | Snow |
|---|---|---|---|---|---|---|---|
| 1777321091 | 14.44° C | 79% | 1007.3 hPa | 0 mm | - | 131 W/m² | - |
| 1777320789 | 14.44° C | 80% | 1007.2 hPa | 0 mm | - | 102 W/m² | - |
| 1777320485 | 15° C | 79% | 1007.2 hPa | 0 mm | - | 84 W/m² | - |
| 1777320183 | 15° C | 79% | 1007.1 hPa | 0 mm | - | 114 W/m² | - |
| 1777319880 | 15° C | 78% | 1007 hPa | 0 mm | - | 124 W/m² | - |
| 1777319577 | 15° C | 79% | 1007.3 hPa | 0 mm | - | 181 W/m² | - |
| 1777319274 | 15° C | 80% | 1007 hPa | 0 mm | - | 174 W/m² | - |
| 1777318971 | 15° C | 80% | 1007.1 hPa | 0 mm | - | 125 W/m² | - |
| 1777318668 | 15° C | 80% | 1006.8 hPa | 0 mm | - | 124 W/m² | - |
| 1777318364 | 15° C | 80% | 1007 hPa | 0 mm | - | 193 W/m² | - |
| 1777318060 | 15° C | 80% | 1006.7 hPa | 0 mm | - | 145 W/m² | - |
| 1777317757 | 15° C | 81% | 1006.7 hPa | 0 mm | - | 127 W/m² | - |
| 1777317455 | 15° C | 81% | 1006.7 hPa | 0 mm | - | 183 W/m² | - |
| 1777317151 | 14.44° C | 83% | 1006.7 hPa | 0 mm | - | 117 W/m² | - |
| 1777316847 | 14.44° C | 82% | 1007.1 hPa | 0 mm | - | 90 W/m² | - |
| 1777316544 | 14.44° C | 82% | 1006.8 hPa | 0 mm | - | 74 W/m² | - |
| 1777316241 | 14.44° C | 83% | 1006.4 hPa | 0 mm | - | 117 W/m² | - |
| 1777315938 | 14.44° C | 83% | 1006.4 hPa | 0 mm | - | 88 W/m² | - |
| 1777315637 | 15° C | 84% | 1006.3 hPa | 0 mm | - | 62 W/m² | - |
| 1777315335 | 15° C | 83% | 1006.3 hPa | 0 mm | - | 96 W/m² | - |
| 1777315032 | 15° C | 83% | 1006.2 hPa | 0 mm | - | 87 W/m² | - |
| 1777314732 | 15° C | 82% | 1006.1 hPa | 0 mm | - | 82 W/m² | - |
| 1777314429 | 15° C | 83% | 1006.3 hPa | 0 mm | - | 108 W/m² | - |
| 1777314126 | 15° C | 83% | 1005.8 hPa | 0 mm | - | 131 W/m² | - |
| 1777313824 | 14.44° C | 84% | 1005.9 hPa | 0 mm | - | 91 W/m² | - |
* Rain latest hour (hover to see other rain measurements)
** Current wind speed in m/s (hover to see current wind gust speed)